Tracking 35334 objects as of 12-Sep-2026
HD Live streaming from Space Station
objects crossing your sky now

DELTA 1 DEB


DELTA 1 DEB is no longer on orbit


NORAD ID: 8095
Int'l Code: 1972-058DW
Launch date: July 23, 1972
Source: United States (US)
Launch site: AIR FORCE WESTERN TEST RANGE (AFWTR)
Decay date: 1983-06-09

Note: This is SATELLITE DEBRIS
Your satellite tracking list
Your tracking list is empty




NASA's NSSDC Master Catalog

Two Line Element Set (TLE):
1 08095U 72058 DW 83159.91736463  .10980797 +11382-4 +27010-2 0  9991
2 08095 098.6984 302.4061 0020820 208.1762 158.9957 16.28574453415528
Source of the keplerian elements: AFSPC